Regional Weather Roundup
Issued by NWS

Home | Current Version | Previous Version | Graphics & Text | Print | Product List | Glossary On
Versions: 1 2 3 4 5 6 7 8 9 10 11 12 13 14 15 16 17 18 19 20 21 22 23 24 25 26 27 28 29 30 31 32 33 34 35 36 37 38 39 40 41 42 43 44 45 46 47 48 49 50
000
ASUS43 KIND 041209
RWRIN

WEATHER ROUNDUP FOR INDIANA
NATIONAL WEATHER SERVICE INDIANAPOLIS IN
800 AM EDT SAT JUL 04 2015

NOTE: "FAIR" INDICATES FEW OR NO CLOUDS BELOW 12,000 FEET WITH NO
SIGNIFICANT WEATHER AND/OR OBSTRUCTIONS TO VISIBILITY.

* - STATION DOES NOT REPORT WEATHER SUCH AS PRECIPITATION OR FOG.

+ - STATION NOT QUALITY CONTROLLED BY THE NATIONAL WEATHER SERVICE.
    USE DATA WITH CAUTION...ESPECIALLY DEWPOINT AND RELATIVE
    HUMIDITY OBSERVATIONS.

INZ001>003-010>013-019-020-041300-
NORTHWEST INDIANA

CITY           SKY/WX    TMP DP  RH WIND       PRES   REMARKS
GARY /AIRPORT/ SUNNY     61  59  94 CALM      29.98R FOG
KNOX *+        SUNNY     55  55 100 CALM      29.98R
LA PORTE +     SUNNY    N/A N/A N/A CALM      30.00R
MICHIGAN CITY+ SUNNY     55  55 100 CALM      30.00R FOG
MONTICELLO +   SUNNY     58  58 100 CALM      29.98R FOG
6HR MIN TEMP:  55; 6HR MAX TEMP:  62;

RENSSELAER +   SUNNY     59  59 100 CALM      29.99R FOG
VALPARAISO     SUNNY     59  56  89 CALM      30.00R FOG
6HR MIN TEMP:  55; 6HR MAX TEMP:  59;


$$

LMZ046-743>745-041300-
SOUTHERN LAKE MICHIGAN

STATION/POSITION TIME  TEMP    WIND        PRES    WAVE
                       AIR SEA DIR/SP/G            HT
                 (UTC) (F)     (DEG/KT/KT) (MB)    (FT)
BURNS HARBOR     1200   61     190/  4/  4 1015.9S
MICHIGAN CITY    1200   59     150/  2/  3   N/A
5NW MICH CITY    1200   62 63  180/  2/  4   N/A     0

$$

INZ004-005-014>016-021>024-041300-
NORTH CENTRAL INDIANA

CITY           SKY/WX    TMP DP  RH WIND       PRES   REMARKS
ELKHART        SUNNY     55  55 100 CALM      30.00  FOG
GOSHEN         SUNNY     57  55  93 CALM      29.99R FOG
6HR MIN TEMP:  53; 6HR MAX TEMP:  58;

LOGANSPORT +   SUNNY     59  55  88 CALM      30.00R FOG
PERU/GRISSOM   SUNNY     60  59  98 W1        29.98R FOG
6HR MIN TEMP:  55; 6HR MAX TEMP:  63;

ROCHESTER +    SUNNY     61  61 100 CALM      30.00R FOG
SOUTH BEND     SUNNY     59  55  87 CALM      30.00R
6HR MIN TEMP:  54; 6HR MAX TEMP:  59;

WARSAW +         N/A     55  55 100 CALM      29.99R FOG

$$

INZ006>009-017-018-025>027-041300-
NORTHEAST INDIANA

CITY           SKY/WX    TMP DP  RH WIND       PRES   REMARKS
ANGOLA *+        N/A     57  46  67 CALM      29.98R
AUBURN +       SUNNY     59  55  88 CALM      30.00R FOG
FORT WAYNE     SUNNY     60  58  92 CALM      29.99R
6HR MIN TEMP:  56; 6HR MAX TEMP:  61;

HUNTINGTON +   SUNNY     60  59  97 CALM      29.99R FOG
6HR MIN TEMP:  56; 6HR MAX TEMP:  60;


$$

INZ028-029-035-036-043>045-051>053-041300-
WEST CENTRAL INDIANA

CITY           SKY/WX    TMP DP  RH WIND       PRES   REMARKS
CRAWFORDSVL +    N/A     58  58  99 CALM      29.99R FOG
6HR MIN TEMP:  55; 6HR MAX TEMP:  60;

GREENCASTLE +  SUNNY     63  57  82 CALM      29.99R HAZE
LAFAYETTE      SUNNY     59  57  93 CALM      29.98R FOG
6HR MIN TEMP:  55; 6HR MAX TEMP:  63;

TERRE HAUTE    SUNNY     65  63  93 CALM      29.98R FOG
6HR MIN TEMP:  61; 6HR MAX TEMP:  67;


$$

INZ030>032-037>040-046>048-054>057-064-065-041300-
CENTRAL INDIANA

CITY           SKY/WX    TMP DP  RH WIND       PRES   REMARKS
CP ATTERBURY + MOSUNNY   64  63  94 CALM      29.98R FOG
FRANKFORT +      N/A    N/A N/A N/A CALM      30.01R FOG
GREENWOOD *+   SUNNY     64  63  94 CALM      29.99R
INDIANAPOLIS   SUNNY     65  60  84 N6        29.97R
6HR MIN TEMP:  62; 6HR MAX TEMP:  69;

-EAGLE CREEK   SUNNY     64  60  87 N3        29.98R
6HR MIN TEMP:  61; 6HR MAX TEMP:  68;

KOKOMO *+      SUNNY     61  57  88 CALM      29.99R
6HR MIN TEMP:  55; 6HR MAX TEMP:  63;

MARION +       SUNNY     58  58  99 CALM      30.00R FOG
MT COMFORT *+  SUNNY     63 N/A N/A CALM      30.00R
SHELBYVILLE    SUNNY     67  62  84 N5        29.98R HAZE
6HR MIN TEMP:  65; 6HR MAX TEMP:  69;

ZIONSVILLE +   SUNNY     61  59  91 CALM      30.00R FOG
6HR MIN TEMP:  58; 6HR MAX TEMP:  64;


$$

INZ033-034-041-042-049-050-058-059-041300-
EAST CENTRAL INDIANA

CITY           SKY/WX    TMP DP  RH WIND       PRES   REMARKS
MUNCIE         SUNNY     62  60  93 CALM      29.99R FOG
6HR MIN TEMP:  58; 6HR MAX TEMP:  65;


$$

INZ060-061-067>069-081>083-085>088-041300-
SOUTHWEST INDIANA

CITY           SKY/WX    TMP DP  RH WIND       PRES   REMARKS
EVANSVILLE     SUNNY     69  65  86 CALM      29.98R FOG
6HR MIN TEMP:  66; 6HR MAX TEMP:  69;

WASHINGTON +   FOG       63  59  87 CALM      29.97R VSB<1/4
6HR MIN TEMP:  61; 6HR MAX TEMP:  64; 6HR PCP:  0.01;


$$

INZ062-063-066-070>080-084-089>092-041300-
SOUTH CENTRAL AND SOUTHEAST INDIANA

CITY           SKY/WX    TMP DP  RH WIND       PRES   REMARKS
BLOOMINGTON    SUNNY     66  65  96 CALM      29.98R FOG
6HR MIN TEMP:  62; 6HR MAX TEMP:  67;

MADISON *+     SUNNY     64  63  94 CALM      30.00R
NORTH VERNON + PTSUNNY   66  66 100 CALM      29.98R FOG
SEYMOUR +        N/A     66  66 100 CALM      29.98R FOG

$$



USA.gov is the U.S. government's official web portal to all federal, state and local government web resources and services.